カタログに戻る

STARLINK-36453

運用中通信VLEO
NORAD 67341·PAYLOAD·🇺🇸 United States

打ち上げ Jan 9, 2026 から Cape Canaveral Space Force Station

Loading…

次のパス (今後24時間)

TLE

最新Source: CelesTrak SupGP

元期: Sep 14, 2026, 23:02 UTC

1 67341C 26003H   26257.96020833 -.00003235  00000+0 -11720-3 0  2570
2 67341  42.9994 238.1123 0001096 259.8450   4.5994 15.27566643    16

AllMySatでSTARLINK-36453をリアルタイム追跡

Download on the App Store